{"data":{"norad_id":57778,"epoch":"2026-09-20T10:18:09.271872Z","epoch_age_seconds":137201,"freshness":"FRESH","line1":"1 57778U 23134H   26263.42927398 -.00000899  00000+0 -23149-4 0  9990","line2":"2 57778  43.0025 163.2195 0001265 262.5175  97.5532 15.27575812169267","mean_motion":15.27575812,"eccentricity":0.0001265,"inclination_deg":43.0025,"raan_deg":163.2195,"arg_perigee_deg":262.5175,"mean_anomaly_deg":97.5532,"bstar":-2.3149e-5,"rev_number":16926,"period_min":94.267007155256,"perigee_km":482.19369481942,"apogee_km":483.92957807444,"semimajor_km":6861.1986364469,"source":"CELESTRAK","updated_at":"2026-09-21T09:00:33.703477Z"}}